[Date Prev][Date Next][Thread Prev][Thread Next] - [Date Index][Thread Index][Author Index]
2 Line ISS Keps 9-24
- Subject: [sarex] 2 Line ISS Keps 9-24
- From: "Dave Larsen PhD" <doc@xxxxxxxxxxx>
- Date: Wed, 24 Sep 2003 01:07:58 -0700
ISS
1 25544U 98067A 03267.20959066 .00012436 00000-0 14212-3 0 5473
2 25544 51.6300 241.3609 0005513 284.2714 194.1434 15.62589194276476
----
Via the sarex mailing list at AMSAT.ORG courtesy of AMSAT-NA.
To unsubscribe, send "unsubscribe sarex" to Majordomo@amsat.org
AMSAT Home